Elkins, WV

1:22 PM EST on December 07, 2016 (GMT -0500)
Elkins-Randolph County

Weather History for KEKN - July, 2014

Change the Weather History Date:

Sunday, July 13, 2014

  Actual Average Record
Temperature  
Mean Temperature 74 °F 70 °F  
Max Temperature 88 °F 81 °F 92 °F (1993)
Min Temperature 60 °F 59 °F 42 °F (1974)
Degree Days  
Heating Degree Days 0 0  
Month to date heating degree days 6 8  
Since 1 June heating degree days 20 63  
Since 1 July heating degree days 6 8  
Cooling Degree Days 9 6  
Month to date cooling degree days 77 66  
Year to date cooling degree days 258 181  
Since 1 June cooling degree days 222 158  
Growing Degree Days 24 (Base 50)    
Moisture  
Dew Point 63 °F    
Average Humidity 68    
Maximum Humidity 93    
Minimum Humidity 42    
Precipitation  
Precipitation 0.55 in 0.18 in 1.99 in (2006)
Month to date precipitation 1.38 2.31  
Year to date precipitation 21.24 25.92  
Snow  
Snow 0.00 in - - ()
Month to date snowfall 0.0  
Since 1 September snowfall 92.3  
Snow Depth 0.00 in    
Sea Level Pressure  
Sea Level Pressure 30.07 in    
Wind  
Wind Speed 4 mph (WSW)    
Max Wind Speed 17 mph    
Max Gust Speed 26 mph    
Visibility 7 miles    
Events Rain    
T = Trace of Precipitation, MM = Missing Value Source: NWS Daily Summary

Daily Weather History Graph

Daily Weather History Graph

Search for Another Location

Airport or City:

Trip Planner

Search our weather history database for the weather conditions in past years. The results will help you decide how hot, cold, wet, or windy it might be!

Date:

Astronomy

Jul. 13, 2014 Rise Set
Actual Time 6:04 AM EDT 8:45 PM EDT
Civil Twilight 5:33 AM EDT 9:16 PM EDT
Nautical Twilight 4:54 AM EDT 9:55 PM EDT
Astronomical Twilight 4:10 AM EDT 10:38 PM EDT
Moon 9:33 PM EDT (7/13) 7:32 AM EDT (7/13)
Length of Visible Light 15h 42m
Length of Day
14h 40m
Full, 98% of the Moon is Illuminated
Jul 13
Full
Jul 18
Last Quarter
Jul 26
New
Aug 3
First Quarter
Aug 10
Full

Hourly Weather History & Observations

Time (EDT) Temp. Heat Index Dew Point Humidity Pressure Visibility Wind Dir Wind Speed Gust Speed Precip Events Conditions
12:51 AM 66.0 °F - 61.0 °F 84% 30.14 in 5.0 mi Calm Calm - N/A   Haze
1:51 AM 64.0 °F - 61.0 °F 90% 30.13 in 5.0 mi Calm Calm - N/A   Scattered Clouds
2:51 AM 62.1 °F - 59.0 °F 90% 30.12 in 3.0 mi Calm Calm - N/A   Clear
3:51 AM 62.1 °F - 60.1 °F 93% 30.11 in 3.0 mi Calm Calm - N/A   Scattered Clouds
4:51 AM 63.0 °F - 60.1 °F 90% 30.10 in 4.0 mi Calm Calm - N/A   Mostly Cloudy
5:51 AM 64.0 °F - 61.0 °F 90% 30.10 in 4.0 mi Calm Calm - N/A   Overcast
6:51 AM 64.9 °F - 62.1 °F 90% 30.11 in 4.0 mi Calm Calm - N/A   Mostly Cloudy
7:51 AM 66.9 °F - 63.0 °F 87% 30.11 in 5.0 mi Calm Calm - N/A   Scattered Clouds
8:51 AM 70.0 °F - 64.0 °F 81% 30.11 in 7.0 mi Calm Calm - N/A   Overcast
9:51 AM 75.9 °F - 63.0 °F 64% 30.11 in 10.0 mi South 6.9 mph - N/A   Overcast
10:51 AM 79.0 °F - 64.0 °F 60% 30.10 in 10.0 mi Variable 3.5 mph - N/A   Overcast
11:51 AM 82.9 °F 83.7 °F 62.1 °F 49% 30.07 in 10.0 mi SSW 10.4 mph 16.1 mph N/A   Clear
1:51 PM 84.0 °F 84.5 °F 62.1 °F 47% 30.05 in 10.0 mi SW 5.8 mph - N/A   Clear
2:51 PM 86.0 °F 86.6 °F 62.6 °F 45% 30.06 in 10.0 mi WSW 10.4 mph 17.3 mph N/A   Clear
3:51 PM 86.0 °F 86.8 °F 63.0 °F 46% 29.99 in 10.0 mi SW 8.1 mph 17.3 mph N/A   Overcast
4:51 PM 87.1 °F 88.3 °F 64.0 °F 46% 29.98 in 10.0 mi SW 10.4 mph - N/A   Mostly Cloudy
5:51 PM 84.0 °F 85.4 °F 64.0 °F 51% 29.98 in 10.0 mi West 6.9 mph - N/A   Overcast
6:51 PM 82.0 °F 83.4 °F 64.0 °F 54% 29.99 in 10.0 mi West 3.5 mph - N/A   Overcast
7:51 PM 75.0 °F - 63.0 °F 66% 30.01 in 10.0 mi North 5.8 mph - 0.00 in Rain Light Rain
8:51 PM 66.9 °F - 63.0 °F 87% 30.04 in 6.0 mi Calm Calm - 0.15 in Rain Rain
9:51 PM 66.9 °F - 64.9 °F 93% 30.03 in 10.0 mi Calm Calm - 0.03 in Rain Light Rain
10:51 PM 66.9 °F - 64.0 °F 90% 30.02 in 10.0 mi Calm Calm - 0.00 in   Scattered Clouds
11:34 PM 66.9 °F - 64.0 °F 90% 30.08 in 8.0 mi NNW 8.1 mph - 0.01 in Rain Light Rain
11:51 PM 68.0 °F - 64.9 °F 90% 30.03 in 3.0 mi Calm Calm - 0.06 in Rain Heavy Rain